Regional Weather Roundup
Issued by NWS

Home | Current Version | Previous Version | Graphics & Text | Print | Product List | Glossary On
Versions: 1 2 3 4 5 6 7 8 9 10 11 12 13 14 15 16 17 18 19 20 21 22 23 24 25 26 27 28 29 30 31 32 33 34 35 36 37 38 39 40 41 42 43 44 45 46 47 48 49 50
000
ASUS43 KFSD 282002
RWRSD

WEATHER ROUNDUP FOR SOUTH DAKOTA
NATIONAL WEATHER SERVICE SIOUX FALLS SD
300 PM CDT THU AUG 28 2014

NOTE: "FAIR" INDICATES FEW OR NO CLOUDS BELOW 12,000 FEET WITH NO
SIGNIFICANT WEATHER AND/OR OBSTRUCTIONS TO VISIBILITY.


SDZ001>005-009-010-012>017-282100-
NORTHWEST AND NORTH CENTRAL SOUTH DAKOTA

CITY           SKY/WX    TMP DP  RH WIND       PRES   REMARKS
BUFFALO          N/A     84  53  34 W6        29.87F
FAITH            N/A     71  62  73 CALM      29.93F
MOBRIDGE       LGT RAIN  69  68  96 VRB3      29.88F
$$

SDZ012>016-024>037-041>051-057-063-072>074-282100-
SOUTHWEST AND SOUTH CENTRAL SOUTH DAKOTA

CITY           SKY/WX    TMP DP  RH WIND       PRES   REMARKS
RAPID CTY ARPT CLOUDY    77  55  46 NW6       29.97F
PIERRE         CLOUDY    72  68  87 N9        29.87S
CUSTER         CLOUDY    70  47  43 VRB3      30.10F
ELLSWORTH AFB  CLOUDY    76  53  45 NW3       29.97F
PHILIP         PTSUNNY   76  62  62 NW12      29.91S
PINE RIDGE     CLOUDY    72  61  68 NW10      29.99F
WINNER         LGT RAIN  74  68  81 NW12      29.87F
$$

SDZ004>011-016>023-039-040-282100-
NORTHEAST SOUTH DAKOTA

CITY           SKY/WX    TMP DP  RH WIND       PRES   REMARKS
ABERDEEN       CLOUDY    69  68  96 E8        29.89F
WATERTOWN      CLOUDY    68  66  93 E6        29.91F
SISSETON         N/A     67  66  97 SE8       29.92F
$$

SDZ017-020-022-023-036>040-048>070-282100-
SOUTHEAST SOUTH DAKOTA

CITY           SKY/WX    TMP DP  RH WIND       PRES   REMARKS
SIOUX FALLS    CLOUDY    72  68  87 SE7       29.89S
HURON          CLOUDY    72  67  84 SE5       29.86F
CHAMBERLAIN    CLOUDY    75  68  78 W5        29.85F
MITCHELL       CLOUDY    74  69  85 E7        29.86F
YANKTON        PTSUNNY   75  72  88 E5        29.85F
$$

ABBREVIATIONS USED IN REMARKS
   TC - TEMPERATURE IN CELSIUS
  WCI - WIND CHILL INDEX
   HX - HEAT INDEX
  VSB - VISIBILITY




USA.gov is the U.S. government's official web portal to all federal, state and local government web resources and services.